OneWeb SL0229

operational
NORAD ID: 48779 Int'l Des: 2021-045 Owner: ONEWEBN Country: UK Constellation: oneweb
LEOCIRCULARPOLARONEWEB_TYPE

About OneWeb SL0229

Description loading...

Live Position

Loading 3D Globe...

Upcoming Passes

Altitude History

Altitude vs Time

uPlot chart will show altitude changes over time

Two-Line Element Set

1 48779U 21045N 25304.05313488 .00000086 00000-0 19470-3 0 9991
2 48779 87.8960 304.9127 0001852 95.7436 264.3905 13.15548914214288
Epoch: Oct 31, 2025 • Age: 15 hours

Current Status

Altitude 1206.1 km
Velocity 7.25 km/s
Sub-Earth Point 36.91°N, 25.18°E
Launch Date May 28, 2021
Age 4.4 years
Type internet

Technical Details

Classification Payload
Mass 148.00 kg
Dry Mass 140.00 kg
Total Mass 148.00 kg
Length 1.30 m
Diameter 1.00 m
Span 5.00 m
Shape Trapezoid+2 pan
Manufacturer ONEWUS
Bus Type ARROW
Phase Status In Orbit
Owner/State ONEWEBN/UK

Large Constellations

Loading constellations...